Regional Weather Roundup
Issued by NWS Portland, ME

Home | Current Version | Previous Version | Text Only | Print | Product List | Glossary On
Versions: 1 2 3 4 5 6 7 8 9 10 11 12 13 14 15 16 17 18 19 20 21 22 23 24 25 26 27 28 29 30 31 32 33 34 35 36 37 38 39 40 41 42 43 44 45 46 47 48 49 50
000
ASUS41 KGYX 231710
RWRGYX
WEATHER ROUNDUP FOR MAINE AND NEW HAMPSHIRE
NATIONAL WEATHER SERVICE GRAY ME
100 PM EDT FRI JUN 23 2017

MEZ002-005-006-010-012-015-018-020-021-024-026-027-029-231800-
MAINE

CITY           SKY/WX    TMP DP  RH WIND       PRES   REMARKS
PORTLAND       CLOUDY    66  60  81 E7        29.74F
SANFORD        CLOUDY    73  63  70 SE5       29.74F
BAR HARBOR     CLOUDY    66  60  81 S8        29.77F
WISCASSET      PTSUNNY   67  62  84 S6        29.77F
ROCKLAND       CLOUDY    61  59  93 S6        29.77F
FRYEBURG       MOSUNNY   72  65  78 CALM      29.73F
LEWISTONAUBURN   N/A     69  64  84 S6        29.75F
AUGUSTA        PTSUNNY   68  63  84 S9        29.75F
WATERVILLE     LGT RAIN  67  65  93 VRB5      29.71F
BANGOR         CLOUDY    67  61  81 S8        29.75F
GREENVILLE       N/A     62  61  96 S6        29.73F
MILLINOCKET    CLOUDY    66  60  81 VRB3      29.75F
HOULTON        CLOUDY    65  57  75 VRB7      29.75S
PRESQUE ISLE   CLOUDY    68  58  70 SE8       29.73F
FRENCHVILLE    CLOUDY    62  54  74 SE10      29.72F
CARIBOU        CLOUDY    67  56  67 SE12      29.72F
$$

NHZ002-005-008-009-011-012-014-231800-
NEW HAMPSHIRE

CITY           SKY/WX    TMP DP  RH WIND       PRES   REMARKS
PORTSMOUTH     PTSUNNY   75  66  73 SE7       29.71F
ROCHESTER      CLOUDY    76  65  68 SE7       29.73F
NASHUA         MOSUNNY   89  70  53 VRB3      29.70F HX  94
MANCHESTER     CLOUDY    85  66  53 SE8       29.69F
CONCORD        CLOUDY    78  68  71 E6        29.72F
LACONIA        CLOUDY   N/A N/A N/A CALM      29.73F
PLYMOUTH       PTSUNNY   74  65  71 NE7       29.71F
BERLIN         CLOUDY    73  63  70 S6        29.71F
WHITEFIELD     CLOUDY    78  69  73 VRB3      29.70F
JAFFREY        CLOUDY    83  67  58 VRB6      29.74F
KEENE          SUNNY     83  69  62 VRB5      29.70F
LEBANON        CLOUDY    82  68  62 CALM      29.66F
MT WASHINGTON  FOG       54  54 100 SW38G49     N/A  VSB 1/16
$$

VTZ005-007-008-231800-
VERMONT

CITY           SKY/WX    TMP DP  RH WIND       PRES   REMARKS
ST JOHNSBURY     N/A     74  68  81 MISG      29.67F
MONTPELIER     MOSUNNY   77  69  76 SW12G18   29.72F
BURLINGTON     CLOUDY    80  70  71 S6G17     29.62F
$$

MAZ007-012-024-CTZ003-RIZ002-NYZ038-NYZ072-231800-
SOUTHERN NEW ENGLAND AND NY

CITY           SKY/WX    TMP DP  RH WIND       PRES   REMARKS
BOSTON         MOSUNNY   88  71  57 S17       29.71F HX  94
WORCESTER      CLOUDY    85  65  51 SW16G22   29.75F
NANTUCKET      CLOUDY    69  66  90 S15       29.83F
PROVIDENCE     CLOUDY    86  72  62 S23G30    29.76F HX  92
HARTFORD       PTSUNNY   88  69  53 S22G29    29.70F HX  92
ALBANY         PTSUNNY   85  68  56 SE13G22   29.65F
NEW YORK CITY  PTSUNNY   84  72  67 SW16G22   29.72F
$$

ANZ081-ANZ082-ANZ150-NHZ014-MEZ023>029-231800-
COASTAL MARINE OBSERVATIONS

STATION/POSITION TIME  TEMP    WIND        PRES    WAVE
                       AIR SEA DIR/SP/G            HT/PER
                 (UTC) (F)     (DEG/KT/KT) (MB)    (FT/S)
MATINICUS ROCK   1600   56     180/ 13/ 13 1008.5F
ISLE OF SHOALS   1600   65     140/ 10/ 11 1007.3F
JEFFREYS LEDGE   1606      59                N/A     2/ 4
CASHES LEDGE BUO 1550   62 60              1008.7    2/ 7
GEORGES BANK BUO 1550   58 55              1013.3    3/ 7
$$

.............KEY..............
   WCI - WIND CHILL
   TC  - TEMPERATURE IN CELSIUS
   VSB - VISIBILITY IN MILES
   HX  - HEAT INDEX
   FAIR- INDICATES FEW OR NO CLOUDS BELOW 12,000 FT, WITH NO
         SIGNIFICANT WEATHER AND/OR OBSTRUCTIONS TO VISIBILITY.





USA.gov is the U.S. government's official web portal to all federal, state and local government web resources and services.